Weather Roundup
Issued by NWS Springfield, MO

Home | Current Version | Previous Version | Text Only | Print | Product List | Glossary On
Versions: 1 2 3 4 5 6 7 8 9 10 11 12 13 14 15 16 17 18 19 20 21 22 23 24 25 26 27 28 29 30 31 32 33 34 35 36 37 38 39 40 41 42 43 44 45 46 47 48 49 50
000
NZUS99 KSGF 291807
HRRSGF

HOURLY WEATHER
NATIONAL WEATHER SERVICE SPRINGFIELD MO
100 PM CDT FRI JUL 29 2016

......SGF CWA......

CITY           SKY/WX    TMP DP  RH WIND       PRES   REMARKS
SPRINGFIELD    MOSUNNY   81  73  76 NW12      29.98F
6HR MIN TEMP:  71; 6HR MAX TEMP:  83; 6HR PCP: TRACE;

JOPLIN         PTSUNNY   83  70  64 NW8       30.00F
6HR MIN TEMP:  68; 6HR MAX TEMP:  85;

WEST PLAINS    PTSUNNY   85  70  60 VRB5      29.99F
6HR MIN TEMP:  69; 6HR MAX TEMP:  87;

ROLLA          MOSUNNY   82  71  69 W3        29.97F
6HR MIN TEMP:  68; 6HR MAX TEMP:  83; 6HR PCP: TRACE;

OSAGE BEACH    PTSUNNY   81  73  76 CALM      29.97F THUNDER
BRANSON        CLOUDY    75  72  88 W9        30.04R THUNDER

......SURROUNDING SGF CWA......

CITY           SKY/WX    TMP DP  RH WIND       PRES   REMARKS
CHANUTE        CLOUDY    83  71  67 W8        30.02R
PARSONS        MOSUNNY   83  69  62 NW3       30.03R
COFFEYVILLE    CLOUDY    82  68  62 W5        30.01F
EMPORIA        CLOUDY    83  67  58 VRB5      30.03R
GROVE OK       CLOUDY    81  72  74 W5        30.01F
ROGERS AR        N/A     79  71  76 W16G23    30.02F
SILOAM SPRINGS CLOUDY    77  63  61 W10       30.03F
HARRISON AR    PTSUNNY   84  73  69 NW15G31   29.98F HX  90
NEAR YELLVILLE PTSUNNY   88  73  62 E3        29.93F HX  96

......KANSAS AND MISSOURI......

CITY           SKY/WX    TMP DP  RH WIND       PRES   REMARKS
KANSAS CTY INT PTSUNNY   82  62  50 N5        30.02S
DOWNTOWN KC    PTSUNNY   84  64  50 VRB3      30.00F
COLUMBIA       PTSUNNY   83  69  62 NW10      29.99F
SEDALIA        MOSUNNY   82  69  64 N8        30.01F
ST JOSEPH      MOSUNNY   81  64  56 MISG      30.02F
ST LOUIS       CLOUDY    82  67  60 NW9       29.97S
SPIRIT OF STL  CLOUDY    84  68  58 W5        29.95F
KIRKSVILLE     MOSUNNY   80  63  55 VRB6      30.00F
WICHITA        MOSUNNY   81  67  62 N10       30.03F
TOPEKA         MOSUNNY   82  66  58 N5        30.01F
OLATHE         CLOUDY    81  64  56 N7        30.02F

......TENNESSEE......

CITY           SKY/WX    TMP DP  RH WIND       PRES   REMARKS
MEMPHIS        PTSUNNY   86  76  71 SW6       29.98F HX  96
NASHVILLE      CLOUDY    87  73  62 SW7       29.97F HX  94

......ARKANSAS.......

CITY           SKY/WX    TMP DP  RH WIND       PRES   REMARKS
FAYETTEVILLE   CLOUDY    77  72  84 W9G18     30.01F
FT SMITH       TSTM      73  68  84 W6        29.99F
LITTLE ROCK    MOSUNNY   91  74  57 SW8       29.96F HX 100

......OKLAHOMA.......

CITY           SKY/WX    TMP DP  RH WIND       PRES   REMARKS
TULSA          CLOUDY    84  67  56 VRB5      29.99S
PONCA CITY     CLOUDY    80  65  59 NE7       30.02F
MCALESTER      SUNNY     88  72  58 VRB3      30.00F HX  94
OKLAHOMA CITY  CLOUDY    78  69  73 S13       29.95F

......IOWA............

CITY           SKY/WX    TMP DP  RH WIND       PRES   REMARKS
DES MOINES     CLOUDY    70  63  78 NW9       30.01S
QUAD CITIES    LGT RAIN  77  69  76 W12       29.93F

......ILLINOIS........

CITY           SKY/WX    TMP DP  RH WIND       PRES   REMARKS
QUINCY         MOSUNNY   78  69  73 W7        29.97F
CHICAGO        PTSUNNY   79  68  69 NE12      29.92F




USA.gov is the U.S. government's official web portal to all federal, state and local government web resources and services.